TITAN 3C TRANSTAGE DEB, 2050

Orbit data source: Space-Track

TITAN 3C TRANSTAGE DEB, 2050 is space debris in LEO originally from a launch on Fri, 15 Oct 1965 UTC launched from the Air Force Eastern Test Range (AFETR). Debris objects in space refer to the collection of defunct objects orbiting the Earth. Examples of debris include non-operational satellites, rocket bodies, and fragments generated from explosions, collisions, or faulty payload assembly.

Loading next visibility...
Identifier
2050, 1965-082JL
Orbit
LEO
Country
Flag of USUS
Related business
Manufacturer
Unknown
Mission
Spacecraft
Bus & Motor
Unknown
Mass
Unknown
Launch date (UTC)
1965-10-15 (60 years ago)
Launch vehicle
Unknown
Launch site
Air Force Eastern Test Range (AFETR)
Object type
Payload
Rocket body
Debris
Shape & HBR
Unknown shape, 0.2 m
Radar Cross Section
Small (<0.1 m²)

Expand to show TLE details & history
Last TLE update: 1 day ago

TLE from 1 day ago
0 TITAN 3C TRANSTAGE DEB
1 02050U 65082JL  26094.67001849  .00001942  00000-0  44760-3 0  9994
2 02050  32.2651 305.8532 0082383 149.9387 210.6020 14.51696842147941
Epoch: 2026-04-04T16:04Z
TLE epoch observation values (Epoch: 2026-04-04T16:04:49.597Z)
Latitude
0.00001°
Longitude
-128.33991°
Altitude
769.225 km
Speed
7.445 km/s
True Right ascension
20h 23m 24s
True Declination
0° 00' 00"
Sunlit
Object was in daylight at epoch
Visualization orbit readout
Latitude
Unknown
Longitude
Unknown
Altitude
Unknown
Speed
Unknown
Apparent Right ascension
Unknown
Apparent Declination
Unknown
Sunlit
N/A
Visualization observer readout
Local Sidereal Time
00:26:37
Azimuth
Unknown
Elevation
Unknown
Doppler factor
Unknown
Orbital elements
Apogee altitude
782.177 km
Perigee altitude
665.163 km
Semi-major axis
7,101.807 km
Eccentricity
0.00824
Inclination
32.2651°
RAAN
305.8532°
Arg. of periapsis
149.9387°
True anomaly
210.12565°
Mean anomaly
210.602°
Eccentric anomaly
210.3634°
Mean motion
3.62652 °/min
Orbital period
99.27 mins
BSTAR
0.0004476

Documentation

Showing up to 5 results
|